DiskSat-4

operational
NORAD ID: 67222 Int'l Des: 2025-305 Owner: STP Country: US
LEOCIRCULAR

Über DiskSat-4

Beschreibung wird geladen...

Live-Position

3D-Globus wird geladen...

Nächste Überflüge

Höhenverlauf

Altitude vs Time

uPlot chart will show altitude changes over time

Zweizeiliger Elementsatz

1 67222U 25305D 25352.32421190 .00004130 00000-0 29211-3 0 9999
2 67222 45.0527 320.6724 0008826 241.9782 118.0201 15.06357331 13
Epoch: 18. Dez. 2025 • Age: 46 hours

Aktueller Status

Höhe 549.2 km
Geschwindigkeit 7.59 km/s
Subsatellitenpunkt -6.67°S, 126.34°E
Startdatum 18. Dez. 2025
Alter 2 days
Typ other

Technische Details

Klassifizierung Payload
Masse 3.00 kg
Trockenmasse 3.00 kg
Gesamtmasse 3.00 kg
Länge 0.03 m
Durchmesser 1.00 m
Spannweite 1.00 m
Form Cyl
Hersteller AERO
Bus-Typ DiskSat
Phasenstatus In Orbit
Besitzer/Staat STP/US

Große Konstellationen

Loading constellations...